TimeEST,TemperatureF,Dew PointF,Humidity,Sea Level PressureIn,VisibilityMPH,Wind Direction,Wind SpeedMPH,Gust SpeedMPH,PrecipitationIn,Events,Conditions,WindDirDegrees,DateUTC
12:15 AM,37.4,37.4,100,30.12,3.0,ENE,5.8,-,0.03,Rain,Rain,70,2013-02-22 05:15:00
12:35 AM,37.4,37.4,100,30.12,4.0,NE,5.8,-,0.06,Rain,Light Rain,50,2013-02-22 05:35:00
12:55 AM,37.4,37.4,100,30.10,6.0,ENE,6.9,-,0.07,Rain,Light Rain,60,2013-02-22 05:55:00
1:15 AM,37.4,37.4,100,30.07,5.0,NNE,6.9,-,0.01,Rain,Light Rain,30,2013-02-22 06:15:00
1:35 AM,39.2,37.4,93,30.08,10.0,ENE,4.6,-,0.01,,Mostly Cloudy,60,2013-02-22 06:35:00
1:55 AM,39.2,39.2,100,30.07,10.0,ENE,5.8,-,0.01,,Overcast,70,2013-02-22 06:55:00
2:15 AM,39.2,39.2,100,30.05,10.0,NE,5.8,-,N/A,,Overcast,50,2013-02-22 07:15:00
2:35 AM,39.2,39.2,100,30.05,10.0,ENE,4.6,-,N/A,,Overcast,70,2013-02-22 07:35:00
2:55 AM,41.0,39.2,93,30.04,10.0,ENE,4.6,-,N/A,,Overcast,60,2013-02-22 07:55:00
3:15 AM,39.2,39.2,100,30.03,8.0,NE,6.9,-,N/A,Rain,Light Rain,50,2013-02-22 08:15:00
3:55 AM,41.0,39.2,93,30.03,10.0,ENE,5.8,-,N/A,,Overcast,60,2013-02-22 08:55:00
4:15 AM,41.0,39.2,93,30.02,10.0,ENE,5.8,-,N/A,,Overcast,70,2013-02-22 09:15:00
4:35 AM,41.0,39.2,93,30.02,10.0,ENE,4.6,-,N/A,,Overcast,70,2013-02-22 09:35:00
4:55 AM,41.0,39.2,93,30.02,10.0,ENE,4.6,-,N/A,,Overcast,70,2013-02-22 09:55:00
5:15 AM,41.0,39.2,93,30.02,10.0,ENE,4.6,-,N/A,,Overcast,60,2013-02-22 10:15:00
5:35 AM,41.0,39.2,93,30.04,10.0,ENE,5.8,-,N/A,,Overcast,70,2013-02-22 10:35:00
5:55 AM,42.8,39.2,87,30.04,10.0,East,4.6,-,N/A,,Overcast,80,2013-02-22 10:55:00
6:15 AM,42.8,39.2,87,30.05,10.0,East,4.6,-,N/A,,Mostly Cloudy,100,2013-02-22 11:15:00
6:35 AM,42.8,39.2,87,30.05,10.0,ESE,5.8,-,N/A,,Mostly Cloudy,110,2013-02-22 11:35:00
7:15 AM,42.8,39.2,87,30.05,10.0,Calm,Calm,-,N/A,,Overcast,0,2013-02-22 12:15:00
7:35 AM,42.8,39.2,87,30.06,10.0,East,4.6,-,N/A,,Overcast,80,2013-02-22 12:35:00
7:55 AM,42.8,39.2,87,30.06,10.0,Calm,Calm,-,N/A,,Overcast,0,2013-02-22 12:55:00
8:15 AM,44.6,39.2,81,30.06,10.0,East,3.5,-,N/A,,Overcast,100,2013-02-22 13:15:00
8:35 AM,44.6,39.2,81,30.08,10.0,East,3.5,-,N/A,,Overcast,80,2013-02-22 13:35:00
8:55 AM,44.6,39.2,81,30.07,10.0,East,3.5,-,N/A,,Overcast,90,2013-02-22 13:55:00
9:15 AM,44.6,39.2,81,30.08,10.0,Calm,Calm,-,N/A,,Overcast,0,2013-02-22 14:15:00
9:35 AM,46.4,41.0,81,30.08,10.0,NE,3.5,-,N/A,,Overcast,50,2013-02-22 14:35:00
9:55 AM,46.4,39.2,76,30.07,10.0,Calm,Calm,-,N/A,,Overcast,0,2013-02-22 14:55:00
10:15 AM,46.4,39.2,76,30.07,10.0,East,4.6,-,N/A,,Overcast,100,2013-02-22 15:15:00
10:35 AM,46.4,39.2,76,30.08,10.0,SSE,5.8,-,N/A,,Overcast,160,2013-02-22 15:35:00
10:55 AM,46.4,39.2,76,30.08,10.0,SSE,3.5,-,N/A,,Overcast,160,2013-02-22 15:55:00
11:15 AM,48.2,37.4,66,30.08,10.0,South,3.5,-,N/A,,Overcast,170,2013-02-22 16:15:00
11:35 AM,48.2,37.4,66,30.07,10.0,Calm,Calm,-,N/A,,Overcast,0,2013-02-22 16:35:00
11:55 AM,50.0,37.4,62,30.08,10.0,SE,5.8,-,N/A,,Overcast,130,2013-02-22 16:55:00
12:15 PM,50.0,37.4,62,30.06,10.0,Calm,Calm,-,N/A,,Overcast,0,2013-02-22 17:15:00
12:35 PM,51.8,39.2,62,30.06,10.0,South,4.6,-,N/A,,Overcast,180,2013-02-22 17:35:00
1:15 PM,53.6,39.2,58,30.05,10.0,SSE,3.5,-,N/A,,Overcast,160,2013-02-22 18:15:00
1:35 PM,53.6,39.2,58,30.04,10.0,SW,3.5,-,N/A,,Overcast,220,2013-02-22 18:35:00
1:55 PM,53.6,39.2,58,30.04,10.0,South,5.8,-,N/A,,Overcast,180,2013-02-22 18:55:00
2:15 PM,53.6,41.0,62,30.05,10.0,Calm,Calm,-,N/A,,Overcast,0,2013-02-22 19:15:00
2:35 PM,55.4,41.0,58,30.05,10.0,SSW,3.5,-,N/A,,Mostly Cloudy,210,2013-02-22 19:35:00
2:55 PM,55.4,41.0,58,30.03,10.0,SW,4.6,-,N/A,,Mostly Cloudy,230,2013-02-22 19:55:00
3:15 PM,55.4,42.8,63,30.04,10.0,WSW,5.8,-,N/A,,Mostly Cloudy,250,2013-02-22 20:15:00
3:35 PM,55.4,42.8,63,30.03,10.0,WSW,3.5,-,N/A,,Mostly Cloudy,240,2013-02-22 20:35:00
3:55 PM,55.4,42.8,63,30.02,10.0,Calm,Calm,-,N/A,,Mostly Cloudy,0,2013-02-22 20:55:00
4:15 PM,55.4,42.8,63,30.02,10.0,Calm,Calm,-,N/A,,Mostly Cloudy,0,2013-02-22 21:15:00
4:35 PM,55.4,44.6,67,30.01,10.0,Calm,Calm,-,N/A,,Mostly Cloudy,0,2013-02-22 21:35:00
4:55 PM,53.6,44.6,72,30.01,10.0,Calm,Calm,-,N/A,,Overcast,0,2013-02-22 21:55:00
5:15 PM,53.6,44.6,72,30.01,10.0,WSW,3.5,-,N/A,,Overcast,240,2013-02-22 22:15:00
5:35 PM,53.6,44.6,72,30.01,10.0,Calm,Calm,-,N/A,,Overcast,0,2013-02-22 22:35:00
5:55 PM,53.6,46.4,77,30.01,10.0,Calm,Calm,-,N/A,,Overcast,0,2013-02-22 22:55:00
6:15 PM,53.6,44.6,72,30.01,10.0,Calm,Calm,-,N/A,,Overcast,0,2013-02-22 23:15:00
6:35 PM,51.8,44.6,76,30.01,10.0,Calm,Calm,-,N/A,,Overcast,0,2013-02-22 23:35:00
6:55 PM,51.8,44.6,76,30.02,10.0,Calm,Calm,-,N/A,,Overcast,0,2013-02-22 23:55:00
7:15 PM,51.8,44.6,76,30.03,10.0,South,3.5,-,N/A,,Overcast,190,2013-02-23 00:15:00
7:35 PM,50.0,44.6,82,30.03,10.0,South,3.5,-,N/A,,Overcast,180,2013-02-23 00:35:00
7:55 PM,51.8,44.6,76,30.03,10.0,SSW,3.5,-,N/A,,Overcast,200,2013-02-23 00:55:00
8:15 PM,50.0,44.6,82,30.03,10.0,Calm,Calm,-,N/A,,Overcast,0,2013-02-23 01:15:00
8:35 PM,50.0,44.6,82,30.04,10.0,Calm,Calm,-,N/A,,Overcast,0,2013-02-23 01:35:00
8:55 PM,50.0,44.6,82,30.04,10.0,Calm,Calm,-,N/A,,Overcast,0,2013-02-23 01:55:00
9:15 PM,50.0,46.4,87,30.03,10.0,Calm,Calm,-,N/A,,Overcast,0,2013-02-23 02:15:00
9:35 PM,48.2,46.4,93,30.04,10.0,Calm,Calm,-,N/A,,Overcast,0,2013-02-23 02:35:00
9:55 PM,50.0,46.4,87,30.03,10.0,Calm,Calm,-,N/A,,Overcast,0,2013-02-23 02:55:00
10:15 PM,48.2,46.4,93,30.03,10.0,Calm,Calm,-,N/A,,Overcast,0,2013-02-23 03:15:00
10:35 PM,48.2,46.4,93,30.04,10.0,Calm,Calm,-,N/A,,Overcast,0,2013-02-23 03:35:00
10:55 PM,48.2,46.4,93,30.03,10.0,Calm,Calm,-,N/A,,Mostly Cloudy,0,2013-02-23 03:55:00
11:15 PM,48.2,46.4,93,30.04,10.0,South,3.5,-,N/A,,Mostly Cloudy,180,2013-02-23 04:15:00
11:35 PM,48.2,46.4,93,30.04,10.0,Calm,Calm,-,N/A,,Overcast,0,2013-02-23 04:35:00
11:55 PM,48.2,46.4,93,30.02,10.0,Calm,Calm,-,N/A,,Overcast,0,2013-02-23 04:55:00